Weather History for PAJN - May, 2013

Change the Weather History Date:

Thursday, May 16, 2013

  Actual Average Record
Temperature  
Mean Temperature 47 °F 49 °F  
Max Temperature 56 °F 57 °F 75 °F (2014)
Min Temperature 38 °F 41 °F 29 °F (1950)
Degree Days  
Heating Degree Days 18 16  
Month to date heating degree days 300 293  
Since 1 July heating degree days 8317 7821  
Cooling Degree Days 0 0  
Month to date cooling degree days 0 0  
Year to date cooling degree days 0 0  
Moisture  
Dew Point 41 °F    
Average Humidity 80    
Maximum Humidity 100    
Minimum Humidity 59    
Precipitation  
Precipitation 0.00 in 0.12 in 1.29 in (2008)
Month to date precipitation 3.49 1.71  
Year to date precipitation 26.53 17.91  
Sea Level Pressure  
Sea Level Pressure 29.95 in    
Wind  
Wind Speed 6 mph (ESE)    
Max Wind Speed 21 mph    
Max Gust Speed 24 mph    
Visibility 10 miles    
Events Fog , Rain    
T = Trace of Precipitation, MM = Missing Value Source: NWS Daily Summary

Daily Weather History Graph

Daily Weather History Graph

Search for Another Location

Airport or City:

Trip Planner

Search our weather history database for the weather conditions in past years. The results will help you decide how hot, cold, wet, or windy it might be!

Date:

Astronomy

May. 16, 2013 Rise Set
Actual Time 4:28 AM AKDT 9:22 PM AKDT
Civil Twilight 3:31 AM AKDT 10:20 PM AKDT
Nautical Twilight 1:35 AM AKDT 12:24 AM AKDT
Astronomical Twilight Sun does not set Sun does not set
Moon 10:38 AM AKDT (5/16) 1:20 AM AKDT (5/16)
Length of Visible Light 18h 49m
Length of Day
16h 53m
Waxing Crescent, 37% of the Moon is Illuminated
May 16
Waxing Crescent
May 17
First Quarter
May 24
Full
May 31
Last Quarter
Jun 8
New

Hourly Weather History & Observations

Time (AKDT) Temp. Windchill Dew Point Humidity Pressure Visibility Wind Dir Wind Speed Gust Speed Precip Events Conditions
12:53 AM 42.1 °F - 39.0 °F 89% 30.00 in 10.0 mi Calm Calm - N/A   Mostly Cloudy
1:53 AM 41.0 °F - 39.0 °F 93% 30.00 in 10.0 mi Calm Calm - N/A   Mostly Cloudy
2:53 AM 39.9 °F - 39.0 °F 97% 29.99 in 10.0 mi Calm Calm - N/A   Mostly Cloudy
3:53 AM 39.9 °F - 37.9 °F 93% 29.99 in 10.0 mi Calm Calm - N/A   Mostly Cloudy
4:22 AM 37.9 °F - 37.0 °F 97% 29.99 in 10.0 mi Calm Calm - N/A   Mostly Cloudy
4:53 AM 39.0 °F - 37.0 °F 93% 29.99 in 10.0 mi Calm Calm - N/A   Overcast
5:47 AM 39.2 °F - 37.4 °F 93% 29.99 in 10.0 mi Calm Calm - N/A   Mostly Cloudy
5:53 AM 39.9 °F - 39.0 °F 97% 29.99 in 3.0 mi Calm Calm - N/A   Overcast
6:41 AM 39.9 °F 37.8 °F 39.9 °F 100% 29.99 in 10.0 mi ESE 3.5 mph - N/A Fog Patches of Fog
6:49 AM 39.2 °F - 39.2 °F 100% 29.99 in 10.0 mi Calm Calm - N/A Fog Patches of Fog
6:53 AM 39.9 °F - 39.9 °F 100% 30.00 in 10.0 mi Calm Calm - N/A Fog Patches of Fog
7:32 AM 42.1 °F - 42.1 °F 100% 30.00 in 10.0 mi Calm Calm - N/A Fog Patches of Fog
7:53 AM 42.1 °F 40.2 °F 39.9 °F 92% 30.00 in 10.0 mi East 3.5 mph - N/A   Mostly Cloudy
8:53 AM 44.1 °F 40.1 °F 41.0 °F 89% 30.00 in 10.0 mi East 6.9 mph - N/A   Mostly Cloudy
9:53 AM 50.0 °F - 44.1 °F 80% 29.99 in 10.0 mi East 12.7 mph - N/A   Mostly Cloudy
10:53 AM 51.1 °F - 43.0 °F 74% 29.98 in 10.0 mi WSW 9.2 mph - N/A   Mostly Cloudy
11:53 AM 53.1 °F - 39.9 °F 61% 29.97 in 10.0 mi SE 12.7 mph - N/A   Mostly Cloudy
12:53 PM 54.0 °F - 39.9 °F 59% 29.95 in 10.0 mi ESE 11.5 mph - N/A   Overcast
1:53 PM 54.0 °F - 43.0 °F 66% 29.94 in 10.0 mi ESE 19.6 mph - N/A   Overcast
2:53 PM 54.0 °F - 42.1 °F 64% 29.94 in 10.0 mi SE 16.1 mph - N/A   Mostly Cloudy
3:53 PM 55.0 °F - 43.0 °F 64% 29.92 in 10.0 mi ESE 16.1 mph - N/A   Mostly Cloudy
4:53 PM 55.9 °F - 41.0 °F 57% 29.91 in 10.0 mi SE 15.0 mph - N/A   Mostly Cloudy
5:53 PM 55.0 °F - 41.0 °F 59% 29.89 in 10.0 mi SE 16.1 mph - N/A   Mostly Cloudy
6:53 PM 54.0 °F - 42.1 °F 64% 29.89 in 10.0 mi ESE 9.2 mph - N/A   Mostly Cloudy
7:53 PM 52.0 °F - 43.0 °F 71% 29.88 in 10.0 mi SE 10.4 mph - N/A   Mostly Cloudy
8:53 PM 50.0 °F - 44.1 °F 80% 29.88 in 10.0 mi ESE 11.5 mph - N/A   Mostly Cloudy
9:53 PM 48.9 °F - 45.0 °F 86% 29.88 in 10.0 mi East 12.7 mph - 0.00 in Rain Light Rain
10:53 PM 46.9 °F - 45.0 °F 93% 29.87 in 9.0 mi East 13.8 mph - 0.00 in Rain Light Rain
11:37 PM 46.9 °F - 45.0 °F 93% 29.87 in 10.0 mi East 12.7 mph - 0.01 in   Mostly Cloudy
11:53 PM 46.9 °F - 45.0 °F 93% 29.87 in 10.0 mi East 11.5 mph - 0.01 in   Mostly Cloudy